Location: Newark
(54.8972°N, 99.8189°W)
Time: 13:37:23
(UTC+00:00)

Transit 2A - Pass Details

Date: 23 November 2019
Orbit: 602 x 957 km, 66.7° (Epoch: 07 December)

Event Time Altitude Azimuth Distance (km) Brightness Sun altitude
Rises 01:32:48 0° 317° (NW) 2,880 9.6 -26.1°
Reaches altitude 10° 01:35:04 10° 319° (NW) 1,961 8.6 -26.4°
Enters shadow 01:38:02 42° 329° (NNW) 865 6.4 -26.8°
